This is the latest recevied weather packets stored in our database for station/object IU0KRR-10. If no packets are shown the sender has not sent any weather packets the latest 10 day(s).
| Time | Temp. | Humidity | Pressure | Rain* | Wind** | Luminosity | Snow |
|---|---|---|---|---|---|---|---|
| 1777990449 | 22.22° C | 41% | 871.8 hPa | - | - | - | - |
| 1777989548 | 21.67° C | 41% | 871.7 hPa | - | - | - | - |
| 1777988648 | 21.67° C | 42% | 871.8 hPa | - | - | - | - |
| 1777987748 | 21.11° C | 43% | 872 hPa | - | - | - | - |
| 1777986848 | 21.11° C | 43% | 871.8 hPa | - | - | - | - |
| 1777985947 | 20.56° C | 43% | 871.8 hPa | - | - | - | - |
| 1777985047 | 20.56° C | 43% | 872 hPa | - | - | - | - |
| 1777984147 | 20° C | 43% | 871.9 hPa | - | - | - | - |
| 1777983247 | 20° C | 43% | 871.9 hPa | - | - | - | - |
| 1777982347 | 20° C | 44% | 871.9 hPa | - | - | - | - |
| 1777981591 | 20° C | 43% | 871.8 hPa | - | - | - | - |
| 1777981447 | 20° C | 43% | 871.8 hPa | - | - | - | - |
| 1777980547 | 20° C | 43% | 871.9 hPa | - | - | - | - |
| 1777979647 | 20° C | 43% | 871.9 hPa | - | - | - | - |
| 1777978746 | 20° C | 43% | 871.9 hPa | - | - | - | - |
| 1777977846 | 19.44° C | 43% | 871.7 hPa | - | - | - | - |
| 1777976946 | 19.44° C | 43% | 871.7 hPa | - | - | - | - |
| 1777976046 | 19.44° C | 44% | 871.8 hPa | - | - | - | - |
| 1777975146 | 18.89° C | 44% | 871.8 hPa | - | - | - | - |
| 1777974246 | 19.44° C | 43% | 871.8 hPa | - | - | - | - |
| 1777973346 | 19.44° C | 43% | 871.9 hPa | - | - | - | - |
| 1777972446 | 18.89° C | 43% | 871.9 hPa | - | - | - | - |
| 1777971546 | 18.89° C | 44% | 871.7 hPa | - | - | - | - |
| 1777970646 | 18.89° C | 43% | 871.6 hPa | - | - | - | - |
| 1777969780 | 18.89° C | 44% | 871.5 hPa | - | - | - | - |
* Rain since midnight (hover to see other rain measurements)
** Current wind speed in m/s (hover to see current wind gust speed)